Location: Newark
(45.2500°N, 7.5833°E)
Time: 00:32:57
(UTC+00:00)

SR - Pass Details

Date: 27 January 2020
Orbit: 575 x 880 km, 66.7° (Epoch: 24 February)

Event Time Altitude Azimuth Distance (km) Brightness Sun altitude
Exits shadow 04:29:31 12° 350° (N) 2,275 ? -25.8°
Maximum altitude 04:33:22 24° 38° (NE) 1,637 ? -25.1°
Drops below altitude 10° 04:37:36 10° 91° (E) 2,304 ? -24.3°
Sets 04:40:21 0° 106° (ESE) 3,169 ? -23.9°
